Regional Weather Roundup
Issued by NWS

Home | Current Version | Previous Version | Graphics & Text | Print | Product List | Glossary On
Versions: 1 2 3 4 5 6 7 8 9 10 11 12 13 14 15 16 17 18 19 20 21 22 23 24 25 26 27 28 29 30 31 32 33 34 35 36 37 38 39 40 41 42 43 44 45 46 47 48 49 50
000
ASUS43 KTOP 242059
RWRKS

WEATHER ROUNDUP FOR KANSAS
NATIONAL WEATHER SERVICE GOODLAND KS
400 PM CDT THU MAY 24 2018

NOTE:  "FAIR" INDICATES FEW OR NO CLOUDS BELOW 12,000 FEET WITH NO
SIGNIFICANT WEATHER AND/OR OBSTRUCTIONS TO VISIBILITY.

KSZ001>006-013>018-027>032-041>047-242200-
NORTHWEST KANSAS

CITY           SKY/WX    TMP DP  RH WIND       PRES   REMARKS
GOODLAND       FAIR      87  54  32 N6        29.99S
HAYS           FAIR      84  64  50 S17       29.96F
HILL CITY      FAIR      88  61  40 SW14G24   29.94F
RUSSELL        FAIR      85  64  49 S17       29.95F
$$

KSZ061>065-074>080-084>089-242200-
SOUTHWEST KANSAS

CITY           SKY/WX    TMP DP  RH WIND       PRES   REMARKS
DODGE CITY     FAIR      91  58  32 S20G30    29.97F
GARDEN CITY    FAIR      89  52  28 SW17G29   29.96F
GREAT BEND     FAIR      81  67  62 S14G20    29.98F
LIBERAL        FAIR      89  57  33 SW23G32   30.00F
$$

KSZ066>073-081>083-090>101-242200-
SOUTHEAST KANSAS

CITY           SKY/WX    TMP DP  RH WIND       PRES   REMARKS
CHANUTE        FAIR      83  71  67 S14       30.01F
COFFEYVILLE    FAIR      85  70  60 S8        29.99F
HUTCHINSON     FAIR      82  66  58 S12       29.99F
MEDICINE LODGE   N/A     84  65  52 S16G25    29.96F
NEWTON         FAIR      83  68  60 S16       30.01F
PARSONS        FAIR      86  73  65 VRB3      30.02F
WICHITA INTL   PTSUNNY   83  70  64 S10       29.98F
WICHITA JABRA  FAIR      81  71  71 S10       29.99F
WINFIELD       PTSUNNY   82  71  69 SE14G22   29.99F
$$

KSZ007>012-019>026-033>040-048>060-102>105-242200-
NORTHEAST KANSAS

CITY           SKY/WX    TMP DP  RH WIND       PRES   REMARKS
CONCORDIA      FAIR      82  64  54 SW9       29.96F
EMPORIA        HVY RAIN  65  63  93 S6        30.06R FOG
LAWRENCE       TSTM      72  68  87 S6        30.03F
MANHATTAN      FAIR      88  63  43 SW22G32   29.96F
OLATHE IND     FAIR      81  68  64 S8        30.04S
OLATHE EXE     FAIR      80  67  64 S10       30.03F
SALINA         FAIR      87  63  44 S13G22    29.96F
TOPEKA BILLARD FAIR      77  71  82 E10       30.01R THUNDER
TOPEKA FORBES  FAIR      82  69  64 SE14G26   30.00S
$$




USA.gov is the U.S. government's official web portal to all federal, state and local government web resources and services.